Simultaneous Nadir Overpasses (SNOs) Predictions

Prediction of SNOs between GOES-16 and LANDSAT-8 Satellite Orbit:

Table of predicted SNOs for the next 14.0 days since TLE Epoch: 7/16/2022
Index Date Time (GOES-16) GOES-16 Lat,Lon LANDSAT-8 Lat,Lon Distance(km) Time Diff (sec)
1 07/16/2022 15:25:00 -0.03, -75.20 0.67, -78.34 357.52 80
2 07/18/2022 15:12:51 -0.03, -75.22 0.02, -75.40 20.49 80
3 07/20/2022 15:03:23 -0.03, -75.24 -0.64, -72.45 317.51 80
4 07/21/2022 03:24:46 0.03, -75.23 -0.51, -77.64 273.81 80
5 07/23/2022 03:09:57 0.02, -75.26 0.16, -74.69 64.91 80
6 07/25/2022 02:57:47 0.02, -75.29 0.78, -71.74 403.71 80
7 07/25/2022 15:21:42 0.01, -75.31 0.37, -76.88 179.72 80
8 07/27/2022 15:06:53 0.01, -75.34 -0.32, -73.94 159.76 80
9 07/28/2022 03:30:57 -0.01, -75.34 -0.82, -79.13 430.90 80
10 07/29/2022 14:54:43 0.00, -75.38 -0.95, -70.99 499.77 80
